2024/01/24 00:00:00, 6.1,-6.9
2024/01/24 00:10:00, 6.0,-7.5
2024/01/24 00:20:00, 6.0,-7.0
2024/01/24 00:30:00, 5.9,-6.6
2024/01/24 00:40:00, 5.9,-6.8
2024/01/24 00:50:00, 5.8,-6.7
2024/01/24 01:00:00, 5.8,-6.4
2024/01/24 01:10:00, 5.7,-6.7
2024/01/24 01:20:00, 5.7,-6.4
2024/01/24 01:30:00, 5.7,-6.7
2024/01/24 01:40:00, 5.6,-6.3
2024/01/24 01:50:00, 5.6,-6.3
2024/01/24 02:00:00, 5.5,-6.5
2024/01/24 02:10:00, 5.5,-6.6
2024/01/24 02:20:00, 5.4,-6.3
2024/01/24 02:30:00, 5.4,-6.3
2024/01/24 02:40:00, 5.4,-6.4
2024/01/24 02:50:00, 5.3,-6.4
2024/01/24 03:00:00, 5.2,-6.5
2024/01/24 03:10:00, 5.1,-6.2
2024/01/24 03:20:00, 5.1,-6.4
2024/01/24 03:30:00, 5.0,-6.4
2024/01/24 03:40:00, 4.9,-6.5
2024/01/24 03:50:00, 4.9,-6.2
2024/01/24 04:00:00, 4.9,-6.3
2024/01/24 04:10:00, 4.8,-6.6
2024/01/24 04:20:00, 4.7,-6.1
2024/01/24 04:30:00, 4.6,-6.7
2024/01/24 04:40:00, 4.6,-6.0
2024/01/24 04:50:00, 4.6,-6.5
2024/01/24 05:00:00, 4.6,-6.3
2024/01/24 05:10:00, 4.5,-6.7
2024/01/24 05:20:00, 4.5,-6.5
2024/01/24 05:30:00, 4.5,-6.7
2024/01/24 05:40:00, 4.4,-6.5
2024/01/24 05:50:00, 4.4,-6.9
2024/01/24 06:00:00, 4.4,-6.7
2024/01/24 06:10:00, 4.3,-6.3
2024/01/24 06:20:00, 4.3,-6.3
2024/01/24 06:30:00, 4.3,-6.9
2024/01/24 06:40:00, 4.3,-6.5
2024/01/24 06:50:00, 4.2,-6.7
2024/01/24 07:00:00, 4.2,-6.4
2024/01/24 07:10:00, 4.1,-6.3
2024/01/24 07:20:00, 4.1,-6.4
2024/01/24 07:30:00, 4.1,-6.6
2024/01/24 07:40:00, 4.0,-6.3
2024/01/24 07:50:00, 4.0,-6.3
2024/01/24 08:00:00, 3.9,-6.2
2024/01/24 08:10:00, 3.9,-6.1
2024/01/24 08:20:00, 3.8,-6.2
2024/01/24 08:30:00, 3.8,-6.1
2024/01/24 08:40:00, 3.8,-5.8
2024/01/24 08:50:00, 3.7,-5.6
2024/01/24 09:00:00, 3.8,-5.3
2024/01/24 09:10:00, 4.0,-4.9
2024/01/24 09:20:00, 4.0,-5.5
2024/01/24 09:30:00, 4.0,-5.2
2024/01/24 09:40:00, 4.0,-5.0
2024/01/24 09:50:00, 3.8,-5.0
2024/01/24 10:00:00, 3.8,-5.0
2024/01/24 10:10:00, 3.8,-4.9
2024/01/24 10:20:00, 3.9,-5.2
2024/01/24 10:30:00, 4.0,-5.2
2024/01/24 10:40:00, 3.9,-5.1
2024/01/24 10:50:00, 4.2,-4.9
2024/01/24 11:00:00, 4.4,-5.2
2024/01/24 11:10:00, 4.7,-5.2
2024/01/24 11:20:00, 4.7,-4.7
2024/01/24 11:30:00, 4.8,-4.8
2024/01/24 11:40:00, 4.8,-4.5
2024/01/24 11:50:00, 4.8,-4.5
2024/01/24 12:00:00, 4.7,-4.8
2024/01/24 12:10:00, 4.6,-4.5
2024/01/24 12:20:00, 4.6,-4.3
2024/01/24 12:30:00, 4.7,-4.6
2024/01/24 12:40:00, 4.7,-4.5
2024/01/24 12:50:00, 4.7,-4.6
2024/01/24 13:00:00, 4.9,-4.7
2024/01/24 13:10:00, 5.0,-5.2
2024/01/24 13:20:00, 5.5,-5.1
2024/01/24 13:30:00, 5.7,-5.1
2024/01/24 13:40:00, 6.0,-5.2
2024/01/24 13:50:00, 5.9,-5.0
2024/01/24 14:00:00, 5.9,-4.9
2024/01/24 14:10:00, 5.8,-4.8
2024/01/24 14:20:00, 5.8,-4.8
2024/01/24 14:30:00, 5.9,-4.8
2024/01/24 14:40:00, 5.8,-5.1
2024/01/24 14:50:00, 6.2,-5.2
2024/01/24 15:00:00, 6.5,-4.8
2024/01/24 15:10:00, 6.4,-4.8
2024/01/24 15:20:00, 6.4,-4.6
2024/01/24 15:30:00, 6.4,-4.9
2024/01/24 15:40:00, 6.5,-4.7
2024/01/24 15:50:00, 6.5,-5.0
2024/01/24 16:00:00, 6.5,-5.0
2024/01/24 16:10:00, 6.5,-4.9
2024/01/24 16:20:00, 6.4,-4.8
2024/01/24 16:30:00, 6.4,-4.9
2024/01/24 16:40:00, 6.4,-5.2
2024/01/24 16:50:00, 6.3,-5.0
2024/01/24 17:00:00, 6.4,-5.4
2024/01/24 17:10:00, 6.8,-5.2
2024/01/24 17:20:00, 7.1,-5.4
2024/01/24 17:30:00, 7.3,-5.4
2024/01/24 17:40:00, 7.9,-5.3
2024/01/24 17:50:00, 8.4,-5.5
2024/01/24 18:00:00, 8.7,-5.5
2024/01/24 18:10:00, 9.0,-5.5
2024/01/24 18:20:00, 9.0,-5.4
2024/01/24 18:30:00, 9.1,-5.5
2024/01/24 18:40:00, 9.2,-5.2
2024/01/24 18:50:00, 9.6,-5.3
2024/01/24 19:00:00,10.3,-5.2
2024/01/24 19:10:00,10.8,-5.3
2024/01/24 19:20:00,11.4,-5.1
2024/01/24 19:30:00,12.3,-5.6
2024/01/24 19:40:00,12.6,-5.2
2024/01/24 19:50:00,13.2,-4.8
2024/01/24 20:00:00,13.9,-4.9
2024/01/24 20:10:00,14.5,-4.9
2024/01/24 20:20:00,15.0,-5.2
2024/01/24 20:30:00,15.1,-5.1
2024/01/24 20:40:00,15.6,-5.0
2024/01/24 20:50:00,15.7,-5.1
2024/01/24 21:00:00,16.2,-4.9
2024/01/24 21:10:00,16.3,-5.2
2024/01/24 21:20:00,16.4,-4.8
2024/01/24 21:30:00,16.8,-4.6
2024/01/24 21:40:00,17.4,-4.8
2024/01/24 21:50:00,17.9,-4.9
2024/01/24 22:00:00,18.3,-4.8
2024/01/24 22:10:00,18.4,-4.8
2024/01/24 22:20:00,18.6,-4.9
2024/01/24 22:30:00,18.7,-4.6
2024/01/24 22:40:00,18.7,-4.6
2024/01/24 22:50:00,18.6,-4.6
2024/01/24 23:00:00,18.7,-4.6
2024/01/24 23:10:00,19.3,-4.7
2024/01/24 23:20:00,20.6,-4.7
2024/01/24 23:30:00,21.3,-4.6
2024/01/24 23:40:00,22.4,-4.9
2024/01/24 23:50:00,23.1,-4.5
